Tracking 19908 objects as of 18-Oct-2019
HD Live streaming from Space Station
objects crossing your sky now

IRIDIUM 33 DEB

Track IRIDIUM 33 DEB now!
10-day predictions


NORAD ID: 34511
Int'l Code: 1997-051HC
Perigee: 719.6 km
Apogee: 756.0 km
Inclination: 86.4 °
Period: 99.4 minutes
Semi major axis: 7108 km
RCS: 0.037 m2 (small)
Launch date: September 14, 1997
Source: United States (US)
Launch site: TYURATAM MISSILE AND SPACE COMPLEX (TTMTR)

Note: This is SATELLITE DEBRIS
aabbcc
Your satellite tracking list
Your tracking list is empty




NASA's NSSDC Master Catalog

Two Line Element Set (TLE):
1 34511U 97051HC  19290.76805993 +.00001413 +00000-0 +37004-3 0  9990
2 34511 086.3857 280.0663 0025620 245.3073 169.5875 14.48472925558934
Source of the keplerian elements: AFSPC